Home > Weather > Volta Redonda > Past weeks

Flag for Brazil Weather for the Past 2 Weeks in Volta Redonda, Rio de Janeiro, Brazil

Now
68 °F

Partly sunny.


Feels Like: 68 °F
Forecast: 55 / 67 °F
Wind: 8 mph from Northwest

Location: Galeao

Current Time: May 1, 2016 at 8:58:35 AM

Latest Report: May 1, 2016 at 8:00 AM


Visibility: N/A

Pressure: 30.12 "Hg

Humidity: 78%

Dew Point: 61 °F

Location of Volta RedondaLocation

Historic Weather in Volta Redonda — Graph

°F

Volta Redonda Temperature Yesterday

Maximum temperature yesterday: 72 °F (at 12:00 PM)
Minimum temperature yesterday: 66 °F (at 12:00 AM)
Average temperature yesterday: 68 °F

High & Low Weather Summary for the Past Weeks

 TemperatureHumidityPressure
High97 °F (Apr 26, 12:00 PM)94% (Apr 16, 7:00 AM)30.12 "Hg (Apr 16, 7:00 AM)
Low64 °F (Apr 28, 10:00 PM)32% (Apr 24, 2:00 PM)29.68 "Hg (Apr 26, 1:00 PM)
Average79 °F70%29.94 "Hg
* Reported Apr 16 7:00 AM — May 1 7:00 AM, Volta Redonda, Weather by CustomWeather, © 2016

Note: Actual official high and low records may vary slightly from our data, if they occured in-between our weather recording intervals... More about our weather records

Advertising

Volta Redonda Weather History for the Previous 24 Hours

Scroll right to see more
 ConditionsComfort  
Time TempWeatherWind HumidityBarometerVisibility
7:00 AM
Sun, May 1
66 °FBroken clouds.7 mph78%30.09 "HgN/A
6:00 AM66 °FBroken clouds.10 mph78%30.07 "HgN/A
5:00 AM66 °FPartly cloudy.12 mph83%30.04 "HgN/A
4:00 AM66 °FLight rain. Partly cloudy.13 mph83%30.01 "HgN/A
3:00 AM68 °FPassing clouds.2 mph83%30.01 "HgN/A
2:00 AM66 °FPassing clouds.5 mph88%30.01 "HgN/A
1:00 AM68 °FPassing clouds.6 mph83%30.01 "HgN/A
12:00 AM68 °FPassing clouds.5 mph83%30.01 "HgN/A
11:00 PM
Sat, Apr 30
68 °FPassing clouds.7 mph78%30.04 "HgN/A
10:00 PM68 °FPassing clouds.6 mph83%30.04 "HgN/A
9:00 PM66 °FPassing clouds.7 mph88%30.04 "HgN/A
8:00 PM66 °FPassing clouds.7 mph88%30.01 "HgN/A
7:00 PM66 °FPassing clouds.7 mph94%30.01 "HgN/A
6:00 PM66 °FPartly cloudy.3 mph88%29.98 "HgN/A
5:00 PM66 °FLight rain. Passing clouds.14 mph88%29.95 "HgN/A
4:00 PM72 °FPartly sunny.9 mph69%29.95 "HgN/A
3:00 PM70 °FBroken clouds.3 mph83%29.92 "HgN/A
2:00 PM70 °FBroken clouds.No wind83%29.95 "HgN/A
1:00 PM72 °FMore clouds than sun.7 mph73%29.95 "HgN/A
12:00 PM72 °FOvercast.8 mph78%29.98 "HgN/A
11:00 AM70 °FMore clouds than sun.7 mph83%29.98 "HgN/A
10:00 AM70 °FMore clouds than sun.6 mph83%30.01 "HgN/A
9:00 AM68 °FOvercast.6 mph88%29.98 "HgN/A
8:00 AM68 °FOvercast.3 mph88%29.98 "HgN/A
Weather by CustomWeather, © 2016

See weather overviewHow to use our weather pages